| time (UTC) | temp C | wind direction | speed KPH | gust KPH | rain 1hr cm | rain 24hr cm | rain mn cm | humidity % | barometer mb |
| 20260504050457 | 7 | 293 | 12.9 | 14.5 | 0.00 | 0.00 | 0.00 | 56 | 1010.6 |
| 20260504045928 | 8 | 293 | 12.9 | 16.1 | 0.00 | 0.00 | 0.00 | 55 | 1010.6 |
| 20260504045427 | 8 | 292 | 11.3 | 19.3 | 0.00 | 0.00 | 0.00 | 54 | 1010.5 |
| 20260504044857 | 8 | 294 | 9.7 | 11.3 | 0.00 | 0.00 | 0.00 | 55 | 1010.5 |
| 20260504044358 | 8 | 311 | 4.8 | 11.3 | 0.00 | 0.00 | 0.00 | 55 | 1010.6 |
| 20260504043827 | 8 | 327 | 8.0 | 9.7 | 0.00 | 0.00 | 0.00 | 54 | 1010.4 |
| 20260504043328 | 9 | 332 | 9.7 | 11.3 | 0.00 | 0.00 | 0.00 | 55 | 1010.3 |
| 20260504042827 | 9 | 340 | 9.7 | 9.7 | 0.00 | 0.00 | 0.00 | 56 | 1010.3 |
| 20260504042258 | 9 | 349 | 12.9 | 14.5 | 0.00 | 0.00 | 0.00 | 57 | 1010.2 |
| 20260504041758 | 9 | 343 | 9.7 | 9.7 | 0.00 | 0.00 | 0.00 | 56 | 1010.2 |
| 20260504041258 | 9 | 341 | 11.3 | 16.1 | 0.00 | 0.00 | 0.00 | 54 | 1013.1 |
| 20260504034927 | 10 | 10 | 16.1 | 19.3 | 0.00 | 0.00 | 0.00 | 50 | 1009.6 |
| 20260504034427 | 10 | 9 | 14.5 | 19.3 | 0.00 | 0.00 | 0.00 | 51 | 1009.6 |
| 20260504033857 | 10 | 3 | 16.1 | 19.3 | 0.00 | 0.00 | 0.00 | 50 | 1009.7 |
| 20260504033357 | 10 | 1 | 19.3 | 19.3 | 0.00 | 0.00 | 0.00 | 50 | 1009.4 |
| 20260504032835 | 10 | 9 | 16.1 | 19.3 | 0.00 | 0.00 | 0.00 | 49 | 1009.2 |
| 20260504032335 | 10 | 14 | 16.1 | 20.9 | 0.00 | 0.00 | 0.00 | 49 | 1009.0 |
| 20260504031805 | 10 | 9 | 14.5 | 19.3 | 0.00 | 0.00 | 0.00 | 47 | 1009.1 |
| 20260504031235 | 11 | 8 | 19.3 | 19.3 | 0.00 | 0.00 | 0.00 | 46 | 1009.0 |
| 20260504030735 | 11 | 12 | 20.9 | 27.4 | 0.00 | 0.00 | 0.00 | 46 | 1008.9 |
| 20260504030235 | 11 | 10 | 24.1 | 27.4 | 0.00 | 0.00 | 0.00 | 44 | 1008.8 |
| 20260504025705 | 11 | 9 | 25.7 | 32.2 | 0.00 | 0.00 | 0.00 | 44 | 1008.8 |
| 20260504025135 | 11 | 0 | 25.7 | 25.7 | 0.00 | 0.00 | 0.00 | 43 | 1008.5 |
| 20260504024635 | 11 | 11 | 27.4 | 32.2 | 0.00 | 0.00 | 0.00 | 43 | 1008.5 |
| 20260504024105 | 12 | 9 | 25.7 | 29.0 | 0.00 | 0.00 | 0.00 | 43 | 1008.4 |
| 20260504023605 | 12 | 13 | 25.7 | 29.0 | 0.00 | 0.00 | 0.00 | 43 | 1008.3 |
| 20260504023035 | 12 | 2 | 27.4 | 35.4 | 0.00 | 0.00 | 0.00 | 42 | 1008.2 |
| 20260504022505 | 12 | 9 | 27.4 | 35.4 | 0.00 | 0.00 | 0.00 | 41 | 1008.0 |
| 20260504022005 | 12 | 6 | 25.7 | 40.2 | 0.00 | 0.00 | 0.00 | 40 | 1008.1 |
| 20260504021505 | 12 | 5 | 29.0 | 37.0 | 0.00 | 0.00 | 0.00 | 40 | 1007.9 |
| 20260504021005 | 12 | 15 | 29.0 | 40.2 | 0.00 | 0.00 | 0.00 | 39 | 1007.7 |
| 20260504020435 | 13 | 352 | 29.0 | 37.0 | 0.00 | 0.00 | 0.00 | 38 | 1007.8 |
| 20260504015935 | 13 | 355 | 35.4 | 38.6 | 0.00 | 0.00 | 0.00 | 37 | 1007.7 |
| 20260504015405 | 13 | 4 | 27.4 | 35.4 | 0.00 | 0.00 | 0.00 | 38 | 1007.7 |
| 20260504014835 | 13 | 1 | 27.4 | 37.0 | 0.00 | 0.00 | 0.00 | 39 | 1007.5 |
| 20260504014335 | 13 | 4 | 27.4 | 33.8 | 0.00 | 0.00 | 0.00 | 38 | 1007.4 |
| 20260504013835 | 13 | 3 | 35.4 | 41.8 | 0.00 | 0.00 | 0.00 | 37 | 1007.3 |
| 20260504013335 | 13 | 355 | 32.2 | 40.2 | 0.00 | 0.00 | 0.00 | 38 | 1007.2 |
| 20260504012805 | 13 | 2 | 27.4 | 33.8 | 0.00 | 0.00 | 0.00 | 37 | 1007.1 |
| 20260504012235 | 13 | 4 | 32.2 | 35.4 | 0.00 | 0.00 | 0.00 | 36 | 1007.0 |
| 20260504011705 | 13 | 3 | 37.0 | 41.8 | 0.00 | 0.00 | 0.00 | 36 | 1006.9 |
| 20260504011205 | 13 | 5 | 32.2 | 37.0 | 0.00 | 0.00 | 0.00 | 37 | 1006.9 |
| 20260504010705 | 13 | 358 | 35.4 | 38.6 | 0.00 | 0.00 | 0.00 | 38 | 1006.9 |
| 20260504010135 | 13 | 7 | 27.4 | 32.2 | 0.00 | 0.00 | 0.00 | 37 | 1006.7 |
| 20260504005605 | 14 | 0 | 29.0 | 35.4 | 0.00 | 0.00 | 0.00 | 38 | 1006.7 |
| 20260504005035 | 13 | 3 | 35.4 | 40.2 | 0.00 | 0.00 | 0.00 | 36 | 1006.7 |
| 20260504004535 | 14 | 9 | 29.0 | 35.4 | 0.00 | 0.00 | 0.00 | 37 | 1006.7 |
| 20260504004005 | 14 | 12 | 29.0 | 35.4 | 0.00 | 0.00 | 0.00 | 37 | 1006.6 |
| 20260504003505 | 14 | 12 | 25.7 | 38.6 | 0.00 | 0.00 | 0.00 | 36 | 1006.8 |
| 20260504002935 | 14 | 16 | 27.4 | 35.4 | 0.00 | 0.00 | 0.00 | 36 | 1006.7 |
| 20260504002435 | 14 | 11 | 32.2 | 40.2 | 0.00 | 0.00 | 0.00 | 36 | 1006.6 |
| 20260504001905 | 14 | 12 | 27.4 | 45.1 | 0.00 | 0.00 | 0.00 | 36 | 1006.5 |
| 20260504001335 | 14 | 23 | 32.2 | 32.2 | 0.00 | 0.00 | 0.00 | 35 | 1006.3 |
| 20260504000835 | 15 | 14 | 38.6 | 49.9 | 0.00 | 0.00 | 0.00 | 35 | 1006.3 |
| 20260504000305 | 15 | 16 | 25.7 | 41.8 | 0.00 | 0.00 | 0.00 | 36 | 1006.3 |
| 20260503235735 | 15 | 33 | 32.2 | 41.8 | 0.00 | 0.00 | 0.00 | 35 | 1006.0 |
| 20260503235235 | 15 | 31 | 33.8 | 40.2 | 0.00 | 0.00 | 0.00 | 34 | 1006.1 |
| 20260503234735 | 16 | 19 | 33.8 | 45.1 | 0.00 | 0.00 | 0.00 | 34 | 1006.2 |
| 20260503234205 | 16 | 29 | 27.4 | 45.1 | 0.00 | 0.00 | 0.00 | 34 | 1006.2 |
| 20260503233705 | 16 | 24 | 29.0 | 40.2 | 0.00 | 0.00 | 0.00 | 33 | 1006.3 |
| 20260503233135 | 16 | 17 | 29.0 | 41.8 | 0.00 | 0.00 | 0.00 | 33 | 1006.4 |
| 20260503232605 | 16 | 27 | 27.4 | 41.8 | 0.00 | 0.00 | 0.00 | 32 | 1006.3 |
| 20260503232035 | 17 | 16 | 29.0 | 32.2 | 0.00 | 0.00 | 0.00 | 31 | 1006.2 |
| 20260503231535 | 17 | 20 | 24.1 | 32.2 | 0.00 | 0.00 | 0.00 | 31 | 1006.2 |
| 20260503231005 | 17 | 1 | 29.0 | 32.2 | 0.00 | 0.00 | 0.00 | 32 | 1006.0 |
| 20260503230505 | 17 | 346 | 27.4 | 32.2 | 0.00 | 0.00 | 0.00 | 32 | 1005.9 |
| 20260503225935 | 17 | 342 | 24.1 | 32.2 | 0.00 | 0.00 | 0.00 | 31 | 1005.9 |
| 20260503225435 | 17 | 338 | 25.7 | 29.0 | 0.00 | 0.00 | 0.00 | 30 | 1005.8 |
| 20260503224935 | 18 | 353 | 29.0 | 41.8 | 0.00 | 0.00 | 0.00 | 31 | 1005.7 |
| 20260503224435 | 18 | 5 | 33.8 | 37.0 | 0.00 | 0.00 | 0.00 | 30 | 1005.6 |
| 20260503223935 | 18 | 359 | 27.4 | 32.2 | 0.00 | 0.00 | 0.00 | 31 | 1005.7 |
| 20260503223435 | 18 | 353 | 37.0 | 46.7 | 0.00 | 0.00 | 0.00 | 30 | 1005.6 |
| 20260503222905 | 18 | 348 | 24.1 | 33.8 | 0.00 | 0.00 | 0.00 | 31 | 1005.6 |
| 20260503222335 | 18 | 344 | 29.0 | 32.2 | 0.00 | 0.00 | 0.00 | 30 | 1005.6 |
| 20260503221835 | 18 | 352 | 33.8 | 38.6 | 0.00 | 0.00 | 0.00 | 29 | 1005.5 |
| 20260503221305 | 18 | 328 | 27.4 | 35.4 | 0.00 | 0.00 | 0.00 | 29 | 1005.5 |
| 20260503220805 | 18 | 346 | 35.4 | 41.8 | 0.00 | 0.00 | 0.00 | 29 | 1005.4 |
| 20260503220235 | 18 | 344 | 27.4 | 33.8 | 0.00 | 0.00 | 0.00 | 29 | 1005.4 |
| 20260503215705 | 18 | 355 | 32.2 | 41.8 | 0.00 | 0.00 | 0.00 | 29 | 1005.6 |
| 20260503215135 | 18 | 344 | 32.2 | 41.8 | 0.00 | 0.00 | 0.00 | 28 | 1005.6 |
| 20260503214605 | 18 | 339 | 29.0 | 35.4 | 0.00 | 0.00 | 0.00 | 28 | 1005.5 |
| 20260503214105 | 18 | 338 | 33.8 | 38.6 | 0.00 | 0.00 | 0.00 | 28 | 1005.6 |
| 20260503213605 | 18 | 339 | 29.0 | 37.0 | 0.00 | 0.00 | 0.00 | 28 | 1005.5 |
| 20260503213105 | 18 | 347 | 25.7 | 32.2 | 0.00 | 0.00 | 0.00 | 28 | 1005.6 |
| 20260503212535 | 19 | 346 | 24.1 | 32.2 | 0.00 | 0.00 | 0.00 | 27 | 1005.7 |
| 20260503212035 | 18 | 327 | 22.5 | 29.0 | 0.00 | 0.00 | 0.00 | 28 | 1005.7 |
| 20260503211535 | 19 | 334 | 22.5 | 27.4 | 0.00 | 0.00 | 0.00 | 26 | 1005.7 |
| 20260503211006 | 18 | 349 | 22.5 | 33.8 | 0.00 | 0.00 | 0.00 | 29 | 1005.8 |
| 20260503210505 | 18 | 341 | 32.2 | 40.2 | 0.00 | 0.00 | 0.00 | 28 | 1005.9 |
| 20260503210006 | 19 | 329 | 25.7 | 38.6 | 0.00 | 0.00 | 0.00 | 28 | 1005.7 |
| 20260503205505 | 18 | 323 | 32.2 | 32.2 | 0.00 | 0.00 | 0.00 | 29 | 1005.9 |
| 20260503204935 | 19 | 307 | 22.5 | 41.8 | 0.00 | 0.00 | 0.00 | 28 | 1005.8 |
| 20260503204405 | 19 | 299 | 27.4 | 41.8 | 0.00 | 0.00 | 0.00 | 28 | 1005.8 |
| 20260503203836 | 19 | 327 | 27.4 | 33.8 | 0.00 | 0.00 | 0.00 | 29 | 1006.0 |
| 20260503203305 | 18 | 321 | 20.9 | 27.4 | 0.00 | 0.00 | 0.00 | 29 | 1005.9 |
| 20260503202805 | 18 | 329 | 20.9 | 24.1 | 0.00 | 0.00 | 0.00 | 29 | 1006.0 |
| 20260503202306 | 18 | 322 | 25.7 | 33.8 | 0.00 | 0.00 | 0.00 | 29 | 1005.9 |
| 20260503201735 | 18 | 326 | 22.5 | 33.8 | 0.00 | 0.00 | 0.00 | 31 | 1006.0 |
| 20260503201236 | 18 | 314 | 22.5 | 32.2 | 0.00 | 0.00 | 0.00 | 32 | 1005.9 |
| 20260503200736 | 18 | 324 | 22.5 | 33.8 | 0.00 | 0.00 | 0.00 | 31 | 1006.0 |
| 20260503200206 | 18 | 304 | 25.7 | 41.8 | 0.00 | 0.00 | 0.00 | 31 | 1005.9 |
| 20260503195705 | 18 | 318 | 20.9 | 32.2 | 0.00 | 0.00 | 0.00 | 31 | 1005.9 |
| 20260503195206 | 18 | 338 | 27.4 | 37.0 | 0.00 | 0.00 | 0.00 | 31 | 1005.9 |
| 20260503194706 | 18 | 336 | 33.8 | 41.8 | 0.00 | 0.00 | 0.00 | 32 | 1005.7 |
| 20260503194206 | 18 | 336 | 33.8 | 37.0 | 0.00 | 0.00 | 0.00 | 31 | 1005.7 |
| 20260503193636 | 18 | 339 | 35.4 | 41.8 | 0.00 | 0.00 | 0.00 | 33 | 1005.7 |
| 20260503193136 | 18 | 336 | 25.7 | 29.0 | 0.00 | 0.00 | 0.00 | 32 | 1005.8 |
| 20260503192605 | 18 | 335 | 24.1 | 40.2 | 0.00 | 0.00 | 0.00 | 31 | 1005.7 |
| 20260503192036 | 19 | 332 | 22.5 | 37.0 | 0.00 | 0.00 | 0.00 | 31 | 1005.7 |
| 20260503191535 | 19 | 319 | 24.1 | 32.2 | 0.00 | 0.00 | 0.00 | 30 | 1005.7 |
| 20260503191006 | 19 | 333 | 25.7 | 41.8 | 0.00 | 0.00 | 0.00 | 29 | 1005.6 |
| 20260503190506 | 19 | 325 | 32.2 | 38.6 | 0.00 | 0.00 | 0.00 | 29 | 1005.6 |
| 20260503185936 | 20 | 329 | 33.8 | 41.8 | 0.00 | 0.00 | 0.00 | 29 | 1005.6 |
| 20260503185436 | 19 | 329 | 27.4 | 40.2 | 0.00 | 0.00 | 0.00 | 30 | 1005.5 |
| 20260503184936 | 19 | 322 | 24.1 | 37.0 | 0.00 | 0.00 | 0.00 | 30 | 1005.7 |
| 20260503184436 | 19 | 309 | 25.7 | 41.8 | 0.00 | 0.00 | 0.00 | 29 | 1005.7 |
| 20260503183906 | 19 | 324 | 27.4 | 32.2 | 0.00 | 0.00 | 0.00 | 28 | 1005.8 |
| 20260503183336 | 19 | 306 | 22.5 | 32.2 | 0.00 | 0.00 | 0.00 | 30 | 1005.8 |
| 20260503182836 | 18 | 313 | 29.0 | 32.2 | 0.00 | 0.00 | 0.00 | 30 | 1005.8 |
| 20260503182306 | 18 | 301 | 22.5 | 41.8 | 0.00 | 0.00 | 0.00 | 30 | 1005.8 |
| 20260503181806 | 18 | 295 | 32.2 | 45.1 | 0.00 | 0.00 | 0.00 | 29 | 1005.8 |
| 20260503181306 | 18 | 321 | 25.7 | 37.0 | 0.00 | 0.00 | 0.00 | 30 | 1005.9 |
| 20260503180806 | 19 | 306 | 24.1 | 41.8 | 0.00 | 0.00 | 0.00 | 29 | 1006.0 |
| 20260503180236 | 18 | 325 | 25.7 | 35.4 | 0.00 | 0.00 | 0.00 | 29 | 1005.9 |
| 20260503175736 | 18 | 302 | 24.1 | 32.2 | 0.00 | 0.00 | 0.00 | 29 | 1006.1 |
| 20260503175206 | 18 | 315 | 24.1 | 33.8 | 0.00 | 0.00 | 0.00 | 30 | 1006.2 |
| 20260503174706 | 18 | 291 | 41.8 | 57.9 | 0.00 | 0.00 | 0.00 | 30 | 1006.3 |
| 20260503174206 | 18 | 312 | 27.4 | 41.8 | 0.00 | 0.00 | 0.00 | 30 | 1006.3 |
| 20260503173636 | 18 | 313 | 25.7 | 35.4 | 0.00 | 0.00 | 0.00 | 30 | 1006.4 |
| 20260503173136 | 18 | 290 | 33.8 | 45.1 | 0.00 | 0.00 | 0.00 | 31 | 1006.5 |
| 20260503172636 | 18 | 284 | 32.2 | 38.6 | 0.00 | 0.00 | 0.00 | 31 | 1006.5 |
| 20260503172106 | 18 | 280 | 37.0 | 48.3 | 0.00 | 0.00 | 0.00 | 31 | 1006.5 |
| 20260503171536 | 18 | 289 | 29.0 | 41.8 | 0.00 | 0.00 | 0.00 | 31 | 1006.5 |
| 20260503171006 | 18 | 307 | 32.2 | 38.6 | 0.00 | 0.00 | 0.00 | 31 | 1006.6 |
| 20260503170506 | 18 | 296 | 22.5 | 32.2 | 0.00 | 0.00 | 0.00 | 32 | 1006.8 |
| 20260503160206 | 16 | 282 | 24.1 | 29.0 | 0.00 | 0.00 | 0.00 | 36 | 1007.4 |
| 20260503150836 | 14 | 288 | 22.5 | 24.1 | 0.00 | 0.00 | 0.00 | 39 | 1007.8 |
| 20260503150336 | 14 | 293 | 24.1 | 32.2 | 0.00 | 0.00 | 0.00 | 38 | 1007.9 |
| 20260503140136 | 10 | 269 | 19.3 | 27.4 | 0.00 | 0.00 | 0.00 | 50 | 1008.2 |
| 20260503131406 | 8 | 275 | 16.1 | 22.5 | 0.00 | 0.00 | 0.00 | 56 | 1008.1 |
| 20260503130906 | 8 | 271 | 14.5 | 19.3 | 0.00 | 0.00 | 0.00 | 57 | 1008.1 |
| 20260503130336 | 8 | 265 | 14.5 | 16.1 | 0.00 | 0.00 | 0.00 | 57 | 1008.1 |
| 20260503110706 | 6 | 273 | 16.1 | 20.9 | 0.00 | 0.00 | 0.00 | 64 | 1008.7 |
| 20260503110206 | 6 | 267 | 19.3 | 22.5 | 0.00 | 0.00 | 0.00 | 64 | 1008.6 |
| 20260503090206 | 10 | 274 | 19.3 | 22.5 | 0.00 | 0.00 | 0.00 | 57 | 1008.3 |
| 20260503081436 | 11 | 246 | 22.5 | 29.0 | 0.00 | 0.00 | 0.00 | 56 | 1008.3 |
| 20260503080906 | 11 | 234 | 24.1 | 29.0 | 0.00 | 0.00 | 0.00 | 56 | 1008.2 |
| 20260503080336 | 11 | 236 | 19.3 | 22.5 | 0.00 | 0.00 | 0.00 | 56 | 1008.2 |
| 20260503072636 | 11 | 230 | 14.5 | 19.3 | 0.00 | 0.00 | 0.00 | 60 | 1008.7 |
| 20260503072136 | 11 | 236 | 14.5 | 19.3 | 0.00 | 0.00 | 0.00 | 60 | 1008.7 |
| 20260503071606 | 11 | 235 | 12.9 | 19.3 | 0.00 | 0.00 | 0.00 | 60 | 1008.8 |
| 20260503071106 | 10 | 228 | 14.5 | 19.3 | 0.00 | 0.00 | 0.00 | 61 | 1009.0 |
| 20260503070606 | 10 | 223 | 11.3 | 16.1 | 0.00 | 0.00 | 0.00 | 62 | 1009.1 |